Overview Statistics Trail Chart Weather Telemetry Raw packets
 

This is the latest recevied weather packets stored in our database for station/object KN6WGU. If no packets are shown the sender has not sent any weather packets the latest 10 day(s).

<< 34 35 36 37 38 39 40 >>
Time Temp. Humidity Pressure Rain* Wind** Luminosity Snow
1788381118 35.56° C 53% 1007.5 hPa 0 mm - 390 W/m² -
1788380813 35.56° C 52% 1007.4 hPa 0 mm - 371 W/m² -
1788380510 35° C 53% 1007.4 hPa 0 mm - 408 W/m² -
1788380206 35° C 54% 1007.5 hPa 0 mm - 427 W/m² -
1788379904 35.56° C 56% 1007.6 hPa 0 mm - 431 W/m² -
1788379599 35.56° C 56% 1007.8 hPa 0 mm - 428 W/m² -
1788379296 35° C 57% 1007.8 hPa 0 mm - 450 W/m² -
1788378991 35.56° C 57% 1007.7 hPa 0 mm - 449 W/m² -
1788378690 36.11° C 55% 1007.8 hPa 0 mm - 445 W/m² -
1788378389 35.56° C 56% 1007.6 hPa 0 mm - 454 W/m² -
1788378084 35.56° C 55% 1007.8 hPa 0 mm - 476 W/m² -
1788377781 35.56° C 56% 1007.9 hPa 0 mm - 489 W/m² -
1788377480 35° C 56% 1008 hPa 0 mm - 485 W/m² -
1788377179 35.56° C 54% 1008.1 hPa 0 mm - 513 W/m² -
1788376878 35.56° C 58% 1008.1 hPa 0 mm - 492 W/m² -
1788376573 36.11° C 57% 1007.8 hPa 0 mm - 535 W/m² -
1788376267 35.56° C 57% 1008 hPa 0 mm - 519 W/m² -
1788375963 35.56° C 57% 1008.3 hPa 0 mm - 525 W/m² -
1788375658 35° C 58% 1008 hPa 0 mm - 567 W/m² -
1788375354 35° C 58% 1008.3 hPa 0 mm - 562 W/m² -
1788375050 35° C 57% 1008.1 hPa 0 mm - 561 W/m² -
1788374745 34.44° C 58% 1008.1 hPa 0 mm - 553 W/m² -
1788374440 34.44° C 58% 1008.3 hPa 0 mm - 560 W/m² -
1788374137 34.44° C 58% 1008.3 hPa 0 mm - 564 W/m² -
1788373833 33.89° C 60% 1008.4 hPa 0 mm - 585 W/m² -

* Rain latest hour (hover to see other rain measurements)
** Current wind speed in m/s (hover to see current wind gust speed)